DG8RAD-1 Weather Reports


Display with metric or nautical units.
time (UTC)temp
F
wind
direction
speed
MPH
gust
MPH
rain 1hr
in
rain 24hr
in
rain mn
in
humidity
%
barometer
mb
20260505214505 69 0 0.0 0.0 0.00 0.00 0.00 53 1012.0
20260505213005 69 0 0.0 0.0 0.00 0.00 0.00 52 1012.0
20260505211505 70 0 0.0 0.0 0.00 0.00 0.00 50 1012.0
20260505210006 71 0 0.0 0.0 0.00 0.00 0.00 49 1012.0
20260505204505 70 0 0.0 0.0 0.00 0.00 0.00 49 1011.0
20260505203005 71 0 0.0 0.0 0.00 0.00 0.00 47 1011.0
20260505201505 72 0 0.0 0.0 0.00 0.00 0.00 44 1011.0
20260505200005 72 0 0.0 0.0 0.00 0.00 0.00 41 1011.0
20260505194505 72 0 0.0 0.0 0.00 0.00 0.00 40 1010.0
20260505193005 73 0 0.0 0.0 0.00 0.00 0.00 39 1010.0
20260505191505 74 0 0.0 0.0 0.00 0.00 0.00 38 1009.0
20260505190005 74 0 0.0 0.0 0.00 0.00 0.00 37 1009.0
20260505184505 74 0 0.0 0.0 0.00 0.00 0.00 37 1009.0
20260505183005 74 0 0.0 0.0 0.00 0.00 0.00 36 1009.0
20260505181505 75 0 0.0 0.0 0.00 0.00 0.00 35 1009.0
20260505180005 74 0 0.0 0.0 0.00 0.00 0.00 36 1009.0
20260505174505 75 0 0.0 0.0 0.00 0.00 0.00 34 1009.0
20260505173005 76 0 0.0 0.0 0.00 0.00 0.00 32 1009.0
20260505171505 77 0 0.0 0.0 0.00 0.00 0.00 33 1009.0
20260505170011 78 0 0.0 0.0 0.00 0.00 0.00 33 1009.0
20260505164505 79 0 0.0 0.0 0.00 0.00 0.00 33 1009.0
20260505163005 79 0 0.0 0.0 0.00 0.00 0.00 35 1009.0
20260505161505 82 0 0.0 0.0 0.00 0.00 0.00 34 1009.0
20260505153005 78 0 0.0 0.0 0.00 0.00 0.00 37 1009.0
20260505151505 79 0 0.0 0.0 0.00 0.00 0.00 37 1009.0
20260505124505 84 0 0.0 0.0 0.00 0.00 0.00 22 1008.0
20260505123005 85 0 0.0 0.0 0.00 0.00 0.00 21 1009.0
20260505121505 87 0 0.0 0.0 0.00 0.00 0.00 20 1009.0
20260505120005 87 0 0.0 0.0 0.00 0.00 0.00 21 1008.0
20260505114505 86 0 0.0 0.0 0.00 0.00 0.00 22 1009.0
20260505113005 85 0 0.0 0.0 0.00 0.00 0.00 24 1009.0
20260505111505 85 0 0.0 0.0 0.00 0.00 0.00 23 1009.0
20260505101505 82 0 0.0 0.0 0.00 0.00 0.00 28 1009.0
20260505100005 82 0 0.0 0.0 0.00 0.00 0.00 29 1010.0
20260505094505 82 0 0.0 0.0 0.00 0.00 0.00 29 1010.0
20260505093005 81 0 0.0 0.0 0.00 0.00 0.00 30 1010.0
20260505091505 80 0 0.0 0.0 0.00 0.00 0.00 32 1010.0
20260505090005 80 0 0.0 0.0 0.00 0.00 0.00 34 1010.0
20260505084505 78 0 0.0 0.0 0.00 0.00 0.00 37 1010.0
20260505083005 77 0 0.0 0.0 0.00 0.00 0.00 39 1010.0
20260505081505 75 0 0.0 0.0 0.00 0.00 0.00 41 1011.0
20260505080005 74 0 0.0 0.0 0.00 0.00 0.00 42 1011.0
20260505074505 74 0 0.0 0.0 0.00 0.00 0.00 43 1011.0
20260505073005 73 0 0.0 0.0 0.00 0.00 0.00 44 1011.0
20260505071505 72 0 0.0 0.0 0.00 0.00 0.00 44 1011.0
20260505070005 71 0 0.0 0.0 0.00 0.00 0.00 45 1011.0
20260505064505 72 0 0.0 0.0 0.00 0.00 0.00 44 1011.0
20260505063005 70 0 0.0 0.0 0.00 0.00 0.00 46 1011.0
20260505061505 70 0 0.0 0.0 0.00 0.00 0.00 47 1011.0
20260505060005 69 0 0.0 0.0 0.00 0.00 0.00 46 1011.0
20260505054505 68 0 0.0 0.0 0.00 0.00 0.00 49 1011.0
20260505053005 68 0 0.0 0.0 0.00 0.00 0.00 48 1011.0
20260505051505 67 0 0.0 0.0 0.00 0.00 0.00 48 1012.0
20260505041505 66 0 0.0 0.0 0.00 0.00 0.00 49 1012.0
20260505040005 66 0 0.0 0.0 0.00 0.00 0.00 48 1012.0
20260505034505 66 0 0.0 0.0 0.00 0.00 0.00 48 1012.0
20260505033005 67 0 0.0 0.0 0.00 0.00 0.00 48 1012.0
20260505031505 67 0 0.0 0.0 0.00 0.00 0.00 47 1012.0
20260505030005 67 0 0.0 0.0 0.00 0.00 0.00 48 1012.0
20260505024505 67 0 0.0 0.0 0.00 0.00 0.00 48 1012.0
20260505023005 68 0 0.0 0.0 0.00 0.00 0.00 47 1012.0
20260505021505 67 0 0.0 0.0 0.00 0.00 0.00 48 1012.0
20260505020005 68 0 0.0 0.0 0.00 0.00 0.00 48 1012.0
20260505014505 68 0 0.0 0.0 0.00 0.00 0.00 48 1012.0
20260505013005 69 0 0.0 0.0 0.00 0.00 0.00 48 1012.0
20260505011505 69 0 0.0 0.0 0.00 0.00 0.00 48 1012.0
20260505010005 69 0 0.0 0.0 0.00 0.00 0.00 48 1012.0
20260505004505 70 0 0.0 0.0 0.00 0.00 0.00 47 1013.0
20260505003005 69 0 0.0 0.0 0.00 0.00 0.00 48 1013.0
20260505001505 70 0 0.0 0.0 0.00 0.00 0.00 47 1013.0
20260505000005 70 0 0.0 0.0 0.00 0.00 0.00 47 1013.0
20260504234505 71 0 0.0 0.0 0.00 0.00 0.00 46 1013.0
20260504233005 70 0 0.0 0.0 0.00 0.00 0.00 47 1013.0
20260504231505 72 0 0.0 0.0 0.00 0.00 0.00 45 1013.0
20260504230005 74 0 0.0 0.0 0.00 0.00 0.00 42 1013.0